Location: Nowy Sacz
(49.6330°N, 20.7170°E)
Time: 20:43:19
(UTC+02:00)

ISS - Visible Passes

Search period start: 23 July 2024 00:00
Search period end: 02 August 2024 00:00
Orbit: 409 x 423 km, 51.6° (Epoch: 23 July)

Date Brightness Start Highest point End Pass type
(mag) Time Alt. Az. Time Alt. Az. Time Alt. Az.
23 Jul -2.5 22:16:07 10° W 22:19:01 28° SW 22:20:10 22° S visible
24 Jul -3.1 21:27:24 10° WNW 21:30:33 41° SSW 21:33:16 13° SE visible
25 Jul -1.5 22:16:29 10° WSW 22:18:12 14° SW 22:19:14 12° SSW visible
26 Jul -1.9 21:27:13 10° W 21:29:45 20° SW 21:32:16 10° SSE visible
